Wind_Speed
29 32 32 32 32 32 34 36 38 39 28 22 28 39 47 37 37 38 47 47 47 49 42 48 55 70 64 50 62 73 76 76 77 74 77 73 73 69 70 61 57 55 57 56
28 30 30 32 36 37 36 38 40 46 46 34 38 38 48 43 37 38 43 44 45 41 41 48 56 64 64 54 43 75 76 81 78 82 79 78 72 77 77 70 61 67 57 61
29 29 29 30 35 36 36 39 39 37 30 27 33 45 50 49 38 38 41 43 41 43 39 44 52 59 64 55 59 52 80 80 88 85 86 81 84 83 72 74 65 70 60 59
34 30 32 31 35 35 36 33 26 28 29 32 28 40 36 32 30 36 44 46 45 42 41 42 45 54 59 54 53 53 76 83 85 79 91 87 82 78 68 64 75 70 57 53
33 33 29 27 33 31 35 24 31 29 34 32 39 39 42 32 29 30 37 42 42 43 42 41 41 45 52 51 54 48 47 83 87 87 73 93 90 82 78 71 61 63 67 58
38 35 31 27 29 34 30 31 37 38 42 40 42 32 39 31 28 25 31 43 44 42 46 43 42 42 46 49 50 47 47 51 74 89 82 71 73 89 79 80 73 62 58 76
32 29 34 30 36 33 32 32 32 29 32 35 22 36 22 14 22 24 38 46 48 41 43 44 44 44 45 47 47 47 46 45 50 56 92 86 78 52 72 74 72 71 72 72
42 40 37 37 42 38 40 33 32 28 27 28 26 38 27 21 28 39 41 46 48 36 34 39 39 44 46 47 47 45 46 44 44 51 54 88 74 68 70 55 51 58 69 57
45 38 43 37 38 28 33 36 22 35 37 36 31 33 31 35 29 37 43 50 48 41 34 36 37 36 38 41 42 43 43 46 47 44 60 75 77 77 73 65 67 58 64 71
47 53 42 39 44 33 40 41 39 38 33 35 28 27 29 31 26 25 35 34 36 42 39 39 35 35 37 36 37 38 38 41 44 47 50 50 50 48 46 47 58 65 65 59
46 43 34 31 32 24 28 27 31 38 40 45 36 29 34 32 36 29 33 33 33 38 44 39 39 40 40 39 38 39 39 39 40 41 46 48 52 53 52 54 55 49 51 58
31 28 34 31 20 19 24 23 32 39 39 40 34 34 18 29 26 30 26 25 35 26 30 39 45 41 42 42 41 41 42 42 44 44 43 45 45 48 51 53 54 52 53 52
23 22 25 13 12 22 22 30 31 29 37 44 43 39 32 37 23 25 30 23 31 36 38 41 45 44 44 44 44 44 45 46 46 47 47 48 48 49 50 50 51 53 53 53
17 19 22 22 22 26 31 26 26 38 20 24 37 40 37 35 37 32 35 40 37 46 41 41 51 47 45 43 44 44 43 44 47 48 48 50 52 52 54 55 55 53 53 54
15 15 20 21 24 26 29 29 28 28 32 39 34 34 37 39 48 43 31 32 32 25 22 28 51 51 44 43 43 43 43 44 46 49 51 51 53 55 57 58 59 60 58 55
18 17 21 20 21 23 24 24 26 28 31 34 36 39 33 33 32 46 46 40 36 32 36 47 53 52 46 42 42 42 43 46 48 52 52 53 54 56 58 60 60 61 63 60
20 21 17 14 18 20 21 13 14 19 21 29 27 25 24 24 25 29 43 45 48 46 42 48 28 39 45 44 43 44 44 48 52 54 53 55 59 60 59 59 61 62 61 63
18 18 19 14 14 12 10 15 24 27 23 15 19 23 23 29 33 33 38 39 36 40 32 55 57 45 46 50 51 50 52 54 55 57 60 62 67 65 63 61 60 60 62 64
18 19 18 17 16 15 12 16 15 19 21 29 25 26 32 34 36 28 22 28 39 36 36 46 47 50 54 56 56 55 57 61 63 64 70 72 71 69 65 66 59 56 54 62
15 17 17 15 17 17 15 24 20 17 19 26 26 26 28 34 44 44 47 45 50 53 54 52 54 55 55 58 59 61 61 63 65 60 49 50 57 58 58 58 60 54 53 60
14 16 16 15 15 13 19 20 17 24 27 26 32 35 37 38 39 41 41 45 52 57 57 57 56 56 56 58 58 58 58 49 45 42 44 46 42 43 51 51 54 48 50 55
14 15 17 17 21 21 26 28 30 32 33 37 37 40 44 47 51 49 50 51 49 51 53 55 55 56 56 54 53 46 35 37 39 42 40 37 36 29 32 38 40 44 50 51
11 14 16 20 21 25 29 31 35 36 40 47 46 51 49 41 42 40 42 45 41 36 34 38 41 42 42 39 40 39 35 35 35 34 36 37 30 31 33 40 41 41 46 45
9 11 15 19 21 26 30 35 39 43 46 51 57 39 37 32 31 31 31 27 27 30 30 30 30 28 25 28 22 17 23 28 24 26 27 22 27 29 33 36 36 37 39 51
11 16 20 24 30 30 32 38 45 50 52 41 38 34 32 30 27 28 24 25 28 27 26 24 20 19 21 23 20 18 18 18 20 8 7 15 17 33 31 34 36 40 50 53
14 23 25 25 29 38 42 48 50 43 40 35 30 26 28 27 28 27 25 25 25 22 23 19 13 18 23 23 22 22 18 12 14 10 11 13 20 28 27 35 44 48 50 49
Wind_Direction
273 269 269 268 265 259 257 254 236 233 223 240 247 259 256 255 251 249 251 253 254 261 257 250 246 245 243 236 231 223 229 232 226 235 242 245 240 241 229 227 230 231 232 232
275 275 274 268 263 261 256 254 255 245 243 233 234 248 260 262 255 252 254 253 253 256 252 244 249 248 242 238 244 224 229 233 233 231 236 243 242 246 243 229 228 232 230 236
278 277 267 263 270 267 261 264 263 258 253 252 261 258 258 260 260 253 254 258 261 259 252 248 245 252 246 235 240 248 225 231 235 233 233 234 239 240 244 223 235 233 233 236
284 283 272 266 269 269 270 267 270 275 267 251 242 259 262 267 267 254 245 249 254 259 257 252 248 245 251 244 250 249 230 229 233 239 234 238 238 239 243 247 252 240 238 241
288 284 283 274 277 276 269 265 247 238 249 250 254 250 259 246 234 252 260 253 253 252 256 255 252 246 250 247 246 251 257 235 235 242 242 235 237 239 240 242 245 242 253 245
281 283 292 295 274 276 277 259 258 252 251 246 256 257 257 253 251 258 264 262 250 249 250 251 250 246 249 247 246 250 245 253 245 240 243 241 244 243 241 246 243 244 239 252
297 275 272 285 274 251 261 269 273 268 263 264 265 248 270 260 252 238 238 255 261 255 251 250 248 249 244 246 246 242 245 243 251 255 241 245 252 243 243 246 246 245 250 252
283 276 265 256 272 256 246 239 254 258 261 272 253 246 242 219 248 225 226 244 256 255 254 250 250 247 248 249 247 246 247 245 249 244 248 245 242 257 245 237 236 241 245 256
272 277 282 279 276 263 269 246 254 254 258 256 247 231 234 215 224 247 246 252 263 264 256 248 250 251 249 250 252 250 247 246 245 243 245 246 249 252 252 252 255 258 247 248
275 280 281 271 264 273 265 261 243 251 262 250 252 252 255 254 245 215 248 253 254 255 255 249 249 249 248 247 249 251 250 249 247 246 246 247 248 248 250 253 256 256 250 250
279 277 285 285 266 257 284 276 264 263 259 266 264 243 250 262 264 253 242 250 247 249 248 254 250 248 249 248 246 248 251 252 250 247 249 249 250 251 250 251 251 253 255 252
273 276 277 280 263 254 253 264 256 246 246 253 259 245 236 250 265 253 213 220 244 257 256 256 253 249 249 250 248 247 247 248 251 251 247 249 251 250 251 249 250 251 252 251
289 266 267 252 263 254 251 238 250 247 246 255 258 239 246 255 262 256 215 238 249 259 268 263 262 255 250 251 251 250 249 248 249 249 249 249 250 252 252 251 252 251 250 250
277 266 262 263 260 254 276 273 265 242 281 248 262 261 245 265 265 255 252 257 266 266 259 272 267 256 254 252 253 253 253 254 253 254 252 250 248 248 250 253 251 248 246 245
277 276 269 265 264 262 265 267 267 243 249 259 264 268 261 253 250 259 257 249 258 245 252 269 270 264 249 251 254 257 259 260 262 261 260 259 257 252 248 246 248 251 248 245
293 290 281 280 273 270 268 272 278 277 277 276 276 270 266 263 255 256 256 257 253 263 252 263 265 263 257 247 251 255 259 259 260 262 265 265 265 262 258 251 247 243 246 245
296 296 289 287 280 272 271 284 267 257 249 256 268 291 244 253 272 261 246 246 242 255 259 261 230 261 260 259 257 257 258 260 260 262 265 268 268 264 259 255 252 245 240 241
298 303 299 280 282 300 300 244 264 258 274 264 284 318 284 241 240 254 249 252 254 246 242 248 263 268 266 264 262 262 262 263 265 267 267 270 270 263 258 254 252 248 236 234
310 310 306 294 279 289 284 288 278 279 293 284 272 272 271 277 278 270 264 258 264 254 268 270 269 261 259 261 263 265 267 270 273 273 270 269 268 262 255 251 249 249 241 224
306 310 314 304 300 298 286 287 299 277 287 287 286 278 270 266 265 262 265 263 262 269 268 263 262 261 261 263 266 267 269 273 274 269 267 268 265 255 250 247 240 238 243 220
313 312 306 312 308 306 293 298 288 285 290 290 288 288 284 279 278 271 265 258 258 260 262 262 263 263 263 266 273 276 274 272 265 264 270 275 265 254 242 232 227 230 237 222
280 291 301 305 304 304 302 301 296 291 294 297 292 291 290 281 278 279 270 267 262 259 258 260 261 262 268 275 276 272 267 269 269 268 271 271 265 243 224 215 222 223 225 221
268 282 298 304 305 296 297 298 290 294 294 299 298 297 294 285 282 280 277 274 274 272 268 266 269 273 277 276 272 272 266 268 272 273 269 266 242 230 219 217 211 213 218 206
280 283 308 307 308 301 297 290 293 299 298 298 298 292 293 289 287 291 285 279 280 279 279 280 279 277 271 270 282 275 258 263 275 275 278 241 230 214 211 203 201 210 200 181
302 306 307 310 307 303 305 305 304 303 303 302 303 299 295 284 286 291 280 277 288 284 282 282 274 269 273 285 287 270 263 265 275 284 234 217 205 203 203 194 193 181 172 172
319 326 323 322 318 318 317 315 311 311 308 304 298 298 287 287 282 279 274 278 278 281 282 279 257 272 264 271 266 263 264 256 234 204 219 195 190 195 199 174 161 160 163 166
Height
5730 5730 5729 5728 5726 5726 5724 5725 5725 5727 5729 5727 5731 5726 5728 5731 5733 5737 5736 5738 5741 5742 5747 5744 5748 5745 5759 5771 5775 5777 5782 5784 5795 5798 5800 5805 5811 5813 5816 5819 5824 5828 5833 5835
5724 5721 5721 5719 5717 5716 5715 5713 5714 5715 5717 5717 5718 5717 5717 5719 5724 5725 5725 5727 5730 5732 5734 5734 5733 5736 5745 5758 5760 5764 5768 5772 5776 5785 5788 5791 5796 5801 5806 5807 5812 5816 5819 5822
5716 5716 5713 5710 5708 5706 5706 5705 5706 5705 5706 5708 5709 5705 5704 5709 5713 5716 5717 5718 5718 5719 5722 5725 5726 5723 5731 5746 5748 5746 5753 5758 5762 5767 5771 5774 5780 5788 5793 5794 5800 5804 5808 5815
5707 5706 5703 5701 5699 5698 5696 5698 5698 5697 5697 5696 5702 5695 5698 5701 5702 5703 5706 5708 5710 5711 5711 5713 5716 5718 5717 5730 5731 5736 5739 5745 5750 5752 5759 5765 5769 5776 5784 5788 5791 5792 5800 5804
5702 5697 5695 5696 5692 5689 5689 5689 5687 5687 5686 5686 5687 5686 5689 5693 5694 5695 5694 5697 5701 5702 5703 5703 5705 5709 5708 5714 5721 5723 5728 5729 5732 5738 5744 5752 5758 5761 5769 5776 5780 5784 5790 5795
5691 5690 5688 5687 5686 5683 5681 5680 5677 5677 5676 5673 5679 5680 5678 5682 5685 5688 5687 5684 5688 5691 5691 5694 5696 5699 5700 5703 5707 5712 5714 5718 5721 5724 5730 5739 5744 5752 5757 5765 5772 5776 5778 5785
5683 5681 5680 5679 5674 5673 5673 5672 5669 5669 5668 5665 5672 5665 5672 5678 5679 5680 5676 5675 5675 5679 5681 5683 5685 5688 5690 5692 5697 5702 5703 5707 5712 5713 5716 5722 5731 5736 5744 5752 5756 5763 5767 5775
5670 5669 5670 5667 5663 5661 5663 5662 5661 5659 5660 5662 5663 5657 5665 5660 5664 5672 5668 5668 5667 5671 5672 5673 5675 5676 5679 5682 5687 5690 5693 5699 5699 5703 5708 5714 5719 5724 5733 5739 5744 5748 5757 5762
5663 5657 5659 5654 5653 5646 5653 5652 5653 5650 5649 5650 5653 5653 5653 5658 5657 5661 5663 5661 5661 5663 5665 5664 5666 5669 5670 5672 5675 5678 5682 5685 5689 5693 5698 5703 5706 5710 5716 5719 5727 5738 5744 5751
5653 5644 5648 5645 5640 5641 5641 5645 5644 5638 5638 5638 5644 5648 5648 5647 5646 5650 5651 5653 5654 5653 5656 5656 5658 5660 5661 5664 5666 5668 5671 5674 5678 5682 5686 5691 5696 5701 5705 5710 5716 5723 5731 5735
5640 5638 5636 5632 5634 5634 5635 5632 5635 5632 5633 5632 5636 5640 5638 5640 5639 5644 5642 5643 5645 5645 5644 5648 5649 5650 5652 5655 5658 5660 5662 5665 5668 5672 5675 5679 5684 5688 5693 5699 5705 5708 5714 5722
5630 5626 5625 5625 5625 5626 5627 5628 5624 5622 5626 5624 5627 5629 5634 5634 5631 5632 5633 5636 5636 5638 5639 5638 5639 5642 5642 5644 5648 5651 5653 5656 5657 5661 5665 5669 5674 5678 5683 5688 5692 5697 5703 5709
5622 5620 5616 5618 5619 5617 5617 5617 5616 5616 5617 5617 5617 5623 5628 5621 5623 5625 5627 5629 5630 5631 5631 5631 5631 5632 5633 5634 5637 5639 5643 5645 5648 5651 5654 5658 5662 5667 5671 5674 5679 5685 5690 5697
5615 5613 5612 5611 5611 5610 5606 5607 5610 5605 5600 5606 5610 5612 5616 5611 5611 5616 5618 5620 5619 5620 5621 5620 5618 5621 5622 5623 5625 5628 5631 5633 5635 5638 5642 5647 5651 5655 5659 5662 5668 5674 5681 5688
5611 5609 5607 5606 5605 5604 5601 5601 5602 5605 5604 5602 5605 5601 5604 5605 5605 5605 5607 5609 5610 5609 5612 5613 5607 5606 5610 5611 5613 5616 5617 5619 5621 5624 5627 5632 5635 5640 5644 5651 5656 5660 5668 5675
5607 5604 5601 5601 5599 5597 5596 5597 5596 5596 5597 5596 5595 5593 5597 5598 5599 5598 5599 5599 5599 5603 5602 5602 5599 5596 5597 5601 5603 5605 5605 5606 5606 5608 5611 5614 5617 5619 5625 5632 5638 5646 5654 5660
5602 5599 5597 5596 5594 5592 5591 5592 5590 5588 5589 5589 5586 5586 5585 5586 5590 5588 5586 5587 5585 5586 5587 5585 5578 5585 5586 5590 5591 5592 5593 5593 5593 5594 5596 5597 5597 5600 5606 5611 5618 5627 5636 5646
5598 5595 5592 5592 5590 5589 5587 5586 5583 5582 5577 5579 5578 5573 5574 5575 5573 5574 5576 5577 5568 5572 5568 5571 5572 5576 5577 5577 5576 5577 5578 5578 5577 5579 5579 5579 5579 5580 5584 5591 5597 5606 5617 5630
5594 5591 5590 5587 5586 5586 5585 5581 5580 5577 5578 5573 5574 5571 5569 5568 5564 5565 5567 5557 5559 5558 5558 5560 5561 5562 5563 5561 5561 5562 5561 5559 5559 5559 5557 5556 5555 5558 5563 5570 5580 5587 5597 5611
5591 5589 5587 5584 5581 5580 5580 5575 5574 5570 5569 5566 5563 5561 5559 5558 5555 5557 5553 5553 5551 5548 5546 5547 5547 5546 5546 5546 5545 5544 5545 5542 5539 5535 5534 5533 5532 5533 5539 5551 5560 5569 5580 5594
5587 5586 5584 5582 5579 5578 5573 5572 5570 5566 5565 5560 5555 5552 5549 5545 5542 5540 5539 5538 5536 5535 5533 5531 5530 5530 5530 5529 5529 5527 5525 5522 5518 5518 5517 5516 5514 5514 5520 5530 5542 5554 5566 5575
5585 5584 5581 5578 5575 5574 5568 5566 5563 5558 5554 5548 5545 5541 5535 5531 5526 5523 5520 5518 5516 5515 5515 5516 5515 5516 5517 5514 5510 5508 5509 5506 5505 5505 5504 5503 5503 5505 5510 5520 5531 5541 5550 5561
5584 5581 5579 5576 5573 5568 5563 5558 5552 5548 5542 5536 5530 5524 5516 5512 5509 5506 5505 5502 5500 5500 5501 5501 5502 5503 5501 5498 5496 5495 5497 5494 5493 5493 5492 5490 5491 5496 5503 5510 5520 5530 5541 5554
5580 5578 5575 5572 5568 5561 5557 5550 5543 5536 5529 5522 5515 5507 5503 5500 5498 5496 5494 5492 5491 5491 5490 5491 5490 5490 5489 5486 5485 5485 5484 5484 5485 5483 5481 5480 5481 5489 5496 5505 5514 5525 5536 5552
5577 5574 5570 5567 5559 5553 5549 5540 5531 5523 5515 5507 5501 5496 5493 5489 5488 5486 5486 5484 5483 5483 5482 5482 5482 5482 5480 5478 5478 5478 5478 5479 5480 5478 5477 5477 5478 5486 5494 5500 5510 5521 5537 5554
5572 5568 5563 5559 5553 5544 5537 5528 5518 5510 5502 5496 5491 5488 5484 5480 5479 5477 5477 5476 5476 5475 5475 5475 5476 5475 5473 5473 5473 5473 5475 5476 5477 5478 5478 5479 5482 5486 5493 5501 5513 5528 5543 5558